Location: Newark
(45.9456°N, 15.4064°E)
Time: 20:03:20
(UTC+00:00)

Vanguard 3 - Pass Details

Date: 27 January 2020
Orbit: 508 x 3263 km, 33.3° (Epoch: 17 February)

Event Time Altitude Azimuth Distance (km) Brightness Sun altitude
Rises 20:04:13 0° 271° (W) 7,217 12.7 -42.8°
Reaches altitude 10° 20:09:39 10° 266° (W) 6,081 12.1 -43.7°
Maximum altitude 20:25:56 41° 205° (SSW) 3,268 10.0 -46.3°
Enters shadow 20:25:58 41° 205° (SSW) 3,266 10.0 -46.3°
Drops below altitude 10° 20:36:49 10° 140° (SE) 4,118 - -48.0°
Sets 20:39:44 0° 133° (SE) 4,774 - -48.4°
